Flag for Mexico Weather past 2 weeks in Mexico City, Federal District, Mexico

Now
55 °F

Partly cloudy.


Feels Like: 55 °F
Forecast: 55 / 70 °F
Wind: 5 mph from Northeast

Location: Mexico City / Licenci

Current Time: Jul 25, 2014 at 4:41:48 AM

Latest Report: Jul 25, 2014 at 3:51 AM


Visibility: 7 mi

Pressure: 29.90 "Hg

Humidity: 94%

Dew point: 54 °F

Location of Mexico CityLocation

Historic Weather in Mexico City — Graph

°F

Mexico City temperature yesterday

Maximum temperature yesterday: 70 °F (at 1:44 PM)
Minimum temperature yesterday: 54 °F (at 5:45 AM)
Average temperature yesterday: 60 °F

Past Weeks' High & Low Weather Summary

 TemperatureHumidityPressure
High81 °F (Jul 21, 5:10 PM)94% (Jul 11, 3:52 AM)30.46 "Hg (Jul 11, 3:52 AM)
Low54 °F (Jul 12, 5:48 AM)23% (Jul 21, 5:10 PM)29.56 "Hg (Jul 20, 7:27 PM)
Average63 °F67%30.25 "Hg
* Reported Jul 10 2:54 AM — Jul 25 2:49 AM, Mexico City, Weather by CustomWeather, © 2014

Note: Actual official high and low records may vary slightly from our data, if they occured in-between our weather recording intervals... More about our weather records

Advertising

Mexico City weather history for previous 24 hours

 ConditionsComfort  
Time TempWeatherWind HumidityBarometerVisibility
2:49 AM
Jul 25
57 °FPartly cloudy.3 mph88%30.39 "Hg7 mi
1:47 AM57 °FPassing clouds.No wind88%30.40 "Hg7 mi
12:44 AM59 °FPartly cloudy.3 mph77%29.98 "Hg9 mi
11:43 PM
Jul 24
59 °FPartly cloudy.5 mph82%30.40 "Hg8 mi
10:46 PM59 °FThunderstorms. Mostly cloudy.12 mph82%30.39 "Hg4 mi
9:42 PM61 °FMostly cloudy.8 mph72%29.93 "Hg10 mi
8:41 PM61 °FMostly cloudy.10 mph63%30.34 "Hg8 mi
4:51 PM68 °FThunderstorms. Mostly cloudy.14 mph49%30.27 "Hg6 mi
1:45 PM70 °FBroken clouds.5 mph43%30.34 "Hg6 mi
1:44 PM70 °FBroken clouds.6 mph43%30.34 "Hg6 mi
12:46 PM66 °FBroken clouds.6 mph52%29.90 "Hg6 mi
10:48 AM63 °FPartly sunny.No wind59%30.38 "Hg7 mi
10:21 AM61 °FBroken clouds.3 mph59%30.38 "Hg7 mi
9:20 AM59 °FBroken clouds.3 mph63%30.38 "Hg7 mi
8:20 AM55 °FScattered clouds.3 mph77%30.39 "Hg8 mi
7:22 AM54 °FPassing clouds.6 mph82%30.37 "Hg8 mi
5:45 AM54 °FPassing clouds.7 mph82%30.34 "Hg14 mi
4:48 AM55 °FMostly cloudy.6 mph77%30.36 "Hg14 mi
Weather by CustomWeather, © 2014

See weather overviewHow to use our weather pages